This is the latest recevied weather packets stored in our database for station/object NA9VY-8. If no packets are shown the sender has not sent any weather packets the latest 10 day(s).
| Time | Temp. | Humidity | Pressure | Rain* | Wind** | Luminosity | Snow |
|---|---|---|---|---|---|---|---|
| 1777314622 | 19.44° C | 83% | 1014.5 hPa | 0 mm | - | 57 W/m² | - |
| 1777314320 | 19.44° C | 82% | 1014.3 hPa | 0.51 mm | - | 69 W/m² | - |
| 1777314017 | 19.44° C | 82% | 1015 hPa | 0.51 mm | - | 50 W/m² | - |
| 1777313714 | 20° C | 81% | 1014.9 hPa | 0 mm | - | 42 W/m² | - |
| 1777313412 | 20.56° C | 78% | 1014.7 hPa | 0 mm | - | 56 W/m² | - |
| 1777313108 | 20.56° C | 78% | 1014 hPa | 0 mm | - | 57 W/m² | - |
| 1777312804 | 20.56° C | 77% | 1014.1 hPa | 0 mm | - | 73 W/m² | - |
| 1777312501 | 20.56° C | 77% | 1014.6 hPa | 0 mm | - | 86 W/m² | - |
| 1777312198 | 20.56° C | 78% | 1014.8 hPa | 0 mm | - | 87 W/m² | - |
| 1777311895 | 20.56° C | 77% | 1015 hPa | 0 mm | - | 103 W/m² | - |
| 1777311592 | 20.56° C | 78% | 1015.1 hPa | 0 mm | - | 130 W/m² | - |
| 1777311290 | 20.56° C | 77% | 1015 hPa | 0 mm | - | 161 W/m² | - |
| 1777310987 | 20.56° C | 77% | 1014.9 hPa | 0 mm | - | 174 W/m² | - |
| 1777310685 | 20.56° C | 77% | 1015.8 hPa | 0 mm | - | 212 W/m² | - |
| 1777310382 | 21.11° C | 77% | 1016.2 hPa | 0 mm | - | 191 W/m² | - |
| 1777310078 | 21.11° C | 76% | 1016.2 hPa | 0 mm | - | 177 W/m² | - |
| 1777309777 | 21.11° C | 76% | 1016.5 hPa | 0 mm | - | 193 W/m² | - |
| 1777309475 | 20.56° C | 75% | 1016.1 hPa | 0 mm | - | 226 W/m² | - |
| 1777309171 | 20.56° C | 76% | 1016.3 hPa | 0 mm | - | 214 W/m² | - |
| 1777308870 | 20.56° C | 76% | 1016.8 hPa | 0 mm | - | 209 W/m² | - |
| 1777308564 | 20.56° C | 76% | 1017 hPa | 0 mm | - | 168 W/m² | - |
| 1777308260 | 20° C | 76% | 1017 hPa | 0 mm | - | 164 W/m² | - |
| 1777307956 | 20° C | 76% | 1017.2 hPa | 0 mm | - | 168 W/m² | - |
| 1777307654 | 20° C | 76% | 1017.4 hPa | 0 mm | - | 138 W/m² | - |
| 1777307351 | 20° C | 76% | 1017.7 hPa | 0 mm | - | 142 W/m² | - |
* Rain latest hour (hover to see other rain measurements)
** Current wind speed in m/s (hover to see current wind gust speed)